Snowfall_Accumulation
0.7 0.0 0.0 0.0 0.0 0.0 0.0 0.0 0.0 0.0 0.0 0.0 0.0 0.0 0.0 0.0 0.0 0.0 0.0 0.0 0.0 0.0 0.0 0.0 0.0 0.0 0.0
0.0 0.0 0.0 0.0 0.0 0.0 0.0 0.0 0.0 0.0 0.0 0.0 0.0 0.0 0.0 0.0 0.0 0.0 0.0 0.0 0.0 0.0 0.0 0.0 0.0 0.0 0.0
0.0 0.0 0.0 0.0 0.0 0.0 0.0 0.0 0.0 0.0 0.0 0.0 0.0 0.0 0.0 0.0 0.0 0.0 0.0 0.0 0.0 0.0 0.0 0.0 0.0 0.0 0.0
0.0 1.1 0.2 0.1 0.2 0.1 0.0 0.0 0.0 0.0 0.0 0.0 0.0 0.0 0.0 0.0 0.0 0.0 0.0 0.0 0.0 0.0 0.0 0.0 0.0 0.0 0.0
2.3 1.3 1.4 0.0 0.0 0.0 0.0 0.0 0.1 0.0 0.0 0.0 0.0 0.0 0.0 0.0 0.0 0.0 0.0 0.0 0.0 0.0 0.0 0.0 0.0 0.0 0.0
4.6 0.8 0.0 0.0 0.0 0.1 1.2 1.4 1.8 0.0 0.1 0.1 0.0 0.0 0.0 0.0 0.0 0.0 0.0 0.0 0.0 0.0 0.0 0.0 0.0 0.0 0.0
0.3 0.1 0.2 0.0 2.0 2.8 1.6 3.2 2.3 0.0 0.1 0.4 0.0 0.0 0.0 0.0 0.0 0.0 0.0 0.0 0.0 0.0 0.0 0.0 0.0 0.0 0.0
0.0 0.1 0.6 0.2 0.5 1.3 2.8 1.8 0.3 0.0 0.1 2.2 0.0 0.1 0.0 0.0 0.0 0.0 0.0 0.0 0.0 0.0 0.0 0.0 0.0 0.0 0.0
0.2 0.0 0.0 0.0 0.0 2.1 2.8 3.8 2.4 0.2 0.0 0.5 0.2 0.2 0.1 0.0 0.0 0.0 0.0 0.0 0.0 0.0 0.0 0.0 0.0 0.0 0.0
0.0 0.0 0.0 0.0 0.0 0.2 5.2 13.7 6.4 4.8 0.0 5.4 1.9 1.3 6.3 1.5 1.5 1.0 0.0 0.0 0.0 0.0 0.0 0.0 0.0 0.1 0.3
0.0 0.0 0.0 0.0 0.1 0.3 2.0 10.3 15.7 9.9 0.1 9.8 12.6 1.4 9.7 5.2 3.5 3.3 2.2 0.1 0.2 0.0 0.0 0.1 0.1 0.2 1.6
0.2 0.2 0.2 0.3 0.2 0.2 0.3 1.9 3.8 9.8 3.0 4.7 22.3 10.6 15.3 10.3 5.1 5.8 2.8 3.1 2.4 1.4 0.6 0.4 0.3 0.3 0.2
1.4 0.6 0.7 1.3 2.0 2.8 4.7 4.9 6.0 7.2 8.2 7.4 12.5 11.9 14.2 13.8 9.8 6.0 7.9 6.2 4.2 6.2 3.8 2.0 2.1 1.2 1.6
4.0 2.7 3.5 5.2 6.2 7.4 11.8 10.3 11.9 9.7 7.7 7.0 8.8 10.6 11.7 6.2 10.4 8.9 6.6 12.8 9.0 8.0 7.5 3.4 1.3 0.6 0.4
4.3 4.5 4.5 7.2 8.2 9.6 13.5 13.2 13.4 9.8 7.8 6.9 6.2 4.5 4.8 6.7 8.7 6.8 8.9 8.4 8.9 12.0 9.7 5.9 4.5 1.2 0.8
6.6 7.2 10.0 11.7 14.3 15.4 15.2 15.1 14.4 10.2 11.3 8.4 8.4 8.4 7.7 5.9 6.5 11.6 9.0 9.7 10.3 10.8 9.5 6.9 6.0 3.0 0.1
10.9 11.5 13.4 15.4 16.3 15.8 13.8 12.3 10.7 9.0 7.0 6.7 9.9 13.0 15.4 9.3 6.7 5.4 14.3 11.1 7.3 7.6 6.7 4.5 5.7 3.8 0.4